Voltar ao catálogo

STARLINK-35199

AtivoComunicaçõesVLEO
NORAD 65858·PAYLOAD·🇺🇸 United States

Lançado Oct 3, 2025 de Vandenberg Space Force Base

Loading…

Próximas Passagens (próximas 24 horas)

TLE

AtualizadoSource: CelesTrak SupGP

Época: Sep 14, 2026, 22:58 UTC

1 65858C 25223E   26257.95743056 -.00049940  00000+0 -14756-2 0  2576
2 65858  53.1572 133.3658 0001139  88.6707  37.4546 15.34413022    11

Acompanhe STARLINK-35199 em tempo real com AllMySat

Download on the App Store